Le nostre stazioni meteo in Italia

Pubblicità
Il mio iltempo24.it
Pantelleria, Italia (16470): Temperatura & dewpoint: 14.08.2017 05:00:00 - 20.08.2017 05:00:00 (CEST)Pantelleria, Italia (16470): velocità del vento: 14.08.2017 05:00:00 - 20.08.2017 05:00:00 (CEST)Pantelleria, Italia (16470): direzione del vento: 14.08.2017 05:00:00 - 20.08.2017 05:00:00 (CEST)Pantelleria, Italia (16470): reduced air pressure: 14.08.2017 05:00:00 - 20.08.2017 05:00:00 (CEST)Pantelleria, Italia (16470): visibility: 14.08.2017 05:00:00 - 20.08.2017 05:00:00 (CEST)Pantelleria, Italia (16470): ore di luce: 14.08.2017 05:00:00 - 20.08.2017 05:00:00 (CEST)
Data & Tempo tt [°C] td [°C] ff [km/h] ff [kn] dd ppp [hPa] vv [km] sd [min]
20.08.2017 05:00:00 - - - - - - - -
20.08.2017 04:00:00 - - - - - - - -
20.08.2017 03:00:00 - - - - - - - -
20.08.2017 02:00:00 - - - - - - - -
20.08.2017 01:00:00 - - - - - - - -
20.08.2017 00:00:00 - - - - - - - -
19.08.2017 23:00:00 - - - - - - - -
19.08.2017 22:00:00 - - - - - - - -
19.08.2017 21:00:00 - - - - - - - -
19.08.2017 20:00:00 28,6 18,7 11 6 S 1014,2 15 42
19.08.2017 19:00:00 30,0 22,2 16 9 S 1014,1 15 30
19.08.2017 18:00:00 30,0 25,5 13 7 S 1014,3 15 36
19.08.2017 17:00:00 32,2 22,0 18 10 SSO 1014,3 20 42
19.08.2017 16:00:00 32,0 21,8 18 10 SSO 1014,6 20 42
19.08.2017 15:00:00 31,6 22,0 21 11 S 1015,2 20 48
19.08.2017 14:00:00 31,8 21,7 21 11 SSO 1015,2 20 48
19.08.2017 13:00:00 31,6 21,8 22 12 SSO 1015,5 20 54
19.08.2017 12:00:00 31,4 20,7 21 11 S 1015,6 20 54
19.08.2017 11:00:00 31,4 21,0 15 8 SSO 1015,6 30 60
19.08.2017 10:00:00 29,0 21,2 9 5 SSO 1015,7 30 60
19.08.2017 09:00:00 27,8 20,1 8 4 SSO 1015,6 30 60
19.08.2017 08:00:00 25,8 20,6 4 2 ENE 1015,5 20 24
19.08.2017 07:00:00 25,2 18,9 8 4 SSE 1015,0 15 0
19.08.2017 06:00:00 - - - - - - - -
19.08.2017 05:00:00 - - - - - - - -
19.08.2017 04:00:00 - - - - - - - -
19.08.2017 03:00:00 - - - - - - - -
19.08.2017 02:00:00 - - - - - - - -
19.08.2017 01:00:00 - - - - - - - -
19.08.2017 00:00:00 - - - - - - - -
18.08.2017 23:00:00 - - - - - - - -
18.08.2017 22:00:00 - - - - - - - -
18.08.2017 21:00:00 - - - - - - - -
18.08.2017 20:00:00 25,0 22,3 5 3 ENE 1015,6 30 60
18.08.2017 19:00:00 26,6 24,3 5 3 N 1015,4 30 60
18.08.2017 18:00:00 27,2 25,0 5 3 N 1015,4 30 60
18.08.2017 17:00:00 28,4 25,0 8 4 ONO 1015,6 30 60
18.08.2017 16:00:00 28,4 24,2 8 4 ONO 1016,5 30 60
18.08.2017 15:00:00 28,2 24,0 5 3 NNE 1016,5 30 60
18.08.2017 14:00:00 31,2 17,9 11 6 SSO 1016,3 30 60
18.08.2017 13:00:00 27,2 20,8 11 6 NNE 1016,6 30 60
18.08.2017 12:00:00 27,2 21,2 9 5 NNE 1016,6 30 60
18.08.2017 11:00:00 26,2 22,5 11 6 NE 1016,7 30 60
18.08.2017 10:00:00 25,2 22,1 11 6 NNE 1016,8 30 60
18.08.2017 09:00:00 25,0 21,9 13 7 N 1016,6 30 36
18.08.2017 08:00:00 24,0 20,9 9 5 N 1016,0 30 0
18.08.2017 07:00:00 22,8 19,8 9 5 NNE 1015,9 15 0
18.08.2017 06:00:00 - - - - - - - -
18.08.2017 05:00:00 - - - - - - - -
18.08.2017 04:00:00 - - - - - - - -
18.08.2017 03:00:00 - - - - - - - -
18.08.2017 02:00:00 - - - - - - - -
18.08.2017 01:00:00 - - - - - - - -
18.08.2017 00:00:00 - - - - - - - -
17.08.2017 23:00:00 - - - - - - - -
17.08.2017 22:00:00 - - - - - - - -
17.08.2017 21:00:00 - - - - - - - -
17.08.2017 20:00:00 25,2 23,4 13 7 NNE 1015,7 30 42
17.08.2017 19:00:00 26,2 24,4 13 7 N 1015,5 30 60
17.08.2017 18:00:00 27,0 23,7 11 6 NNO 1015,6 30 60
17.08.2017 17:00:00 28,0 23,2 13 7 N 1015,6 30 60
17.08.2017 16:00:00 28,0 23,4 11 6 N 1015,8 30 60
17.08.2017 15:00:00 29,6 20,5 9 5 N 1016,0 30 60
17.08.2017 14:00:00 29,6 18,1 9 5 N 1016,2 30 60
17.08.2017 13:00:00 29,6 17,1 9 5 NNE 1016,3 30 60
17.08.2017 12:00:00 31,0 13,3 11 6 ENE 1016,3 30 60
17.08.2017 11:00:00 28,6 12,9 11 6 NE 1016,4 30 60
17.08.2017 10:00:00 28,0 17,5 16 9 E 1015,9 30 60
17.08.2017 09:00:00 26,0 19,2 11 6 ENE 1016,0 30 54
17.08.2017 08:00:00 24,4 22,1 9 5 NE 1016,0 30 0
17.08.2017 07:00:00 23,0 21,3 8 4 NE 1016,0 30 0
17.08.2017 06:00:00 - - - - - - - -
17.08.2017 05:00:00 - - - - - - - -
17.08.2017 04:00:00 - - - - - - - -
17.08.2017 03:00:00 - - - - - - - -
17.08.2017 02:00:00 - - - - - - - -
17.08.2017 01:00:00 - - - - - - - -
17.08.2017 00:00:00 - - - - - - - -
16.08.2017 23:00:00 - - - - - - - -
16.08.2017 22:00:00 - - - - - - - -
16.08.2017 21:00:00 - - - - - - - -
16.08.2017 20:00:00 25,2 23,1 13 7 NNE 1015,8 30 30
16.08.2017 19:00:00 26,0 23,3 11 6 NNE 1015,8 30 30
16.08.2017 18:00:00 26,4 24,4 13 7 N 1016,0 30 42
16.08.2017 17:00:00 27,4 20,2 15 8 NNE 1016,3 30 42
16.08.2017 16:00:00 27,6 19,7 13 7 NNE 1016,6 30 42
16.08.2017 15:00:00 27,4 19,7 13 7 NNE 1016,9 30 48
16.08.2017 14:00:00 27,2 20,5 13 7 N 1017,6 30 48
16.08.2017 13:00:00 26,6 21,6 15 8 NNE 1017,7 30 54
16.08.2017 12:00:00 26,4 22,0 13 7 NNE 1018,0 30 60
16.08.2017 11:00:00 25,2 20,5 11 6 N 1018,1 30 60
16.08.2017 10:00:00 24,8 21,1 9 5 NNE 1018,0 30 60
16.08.2017 09:00:00 24,0 20,9 8 4 NNE 1017,7 30 60
16.08.2017 08:00:00 22,8 19,8 9 5 N 1017,6 30 24
16.08.2017 07:00:00 21,8 18,8 11 6 N 1017,4 15 0
16.08.2017 06:00:00 - - - - - - - -
16.08.2017 05:00:00 - - - - - - - -
16.08.2017 04:00:00 - - - - - - - -
16.08.2017 03:00:00 - - - - - - - -
16.08.2017 02:00:00 - - - - - - - -
16.08.2017 01:00:00 - - - - - - - -
16.08.2017 00:00:00 - - - - - - - -
15.08.2017 23:00:00 - - - - - - - -
15.08.2017 22:00:00 - - - - - - - -
15.08.2017 21:00:00 - - - - - - - -
15.08.2017 20:00:00 27,0 25,2 0 0 N 1018,0 20 60
15.08.2017 19:00:00 28,2 23,8 9 5 S 1017,7 20 60
15.08.2017 18:00:00 29,0 23,4 11 6 SSO 1017,8 20 60
15.08.2017 17:00:00 27,0 22,2 9 5 NNE 1018,2 20 60
15.08.2017 16:00:00 27,4 23,0 15 8 ENE 1018,6 20 60
15.08.2017 15:00:00 27,2 23,4 8 4 NNE 1019,5 20 60
15.08.2017 14:00:00 27,2 23,9 9 5 N 1020,0 20 60
15.08.2017 13:00:00 28,0 22,0 8 4 NNE 1019,9 20 60
15.08.2017 12:00:00 26,8 23,1 9 5 NNE 1019,6 20 60
15.08.2017 11:00:00 26,8 23,9 9 5 NE 1019,5 20 60
15.08.2017 10:00:00 26,6 20,2 9 5 O 1019,5 20 60
15.08.2017 09:00:00 25,8 21,0 8 4 O 1019,6 20 30
15.08.2017 08:00:00 23,8 19,5 2 1 S 1018,9 20 0
15.08.2017 07:00:00 21,4 18,6 9 5 S 1018,6 20 0
15.08.2017 06:00:00 - - - - - - - -
15.08.2017 05:00:00 - - - - - - - -
15.08.2017 04:00:00 - - - - - - - -
15.08.2017 03:00:00 - - - - - - - -
15.08.2017 02:00:00 - - - - - - - -
15.08.2017 01:00:00 - - - - - - - -
15.08.2017 00:00:00 - - - - - - - -
14.08.2017 23:00:00 - - - - - - - -
14.08.2017 22:00:00 - - - - - - - -
14.08.2017 21:00:00 - - - - - - - -
14.08.2017 20:00:00 24,2 22,5 16 9 ENE 1017,9 30 48
14.08.2017 19:00:00 24,6 20,9 16 9 NE 1017,8 30 60
14.08.2017 18:00:00 25,0 22,7 15 8 NE 1017,8 30 60
14.08.2017 17:00:00 25,0 22,3 11 6 NE 1018,0 30 60
14.08.2017 16:00:00 25,4 22,5 13 7 N 1018,1 30 60
14.08.2017 15:00:00 26,0 22,3 11 6 NNO 1018,5 30 60
14.08.2017 14:00:00 26,6 21,1 9 5 NNO 1018,6 30 60
14.08.2017 13:00:00 26,2 21,6 13 7 ONO 1018,9 30 60
14.08.2017 12:00:00 25,4 20,4 11 6 ONO 1019,0 30 60
14.08.2017 11:00:00 25,6 20,6 9 5 NNO 1018,8 30 60
14.08.2017 10:00:00 25,0 21,3 9 5 NNO 1018,9 30 60
14.08.2017 09:00:00 23,6 20,0 8 4 NNE 1018,6 30 48
14.08.2017 08:00:00 22,6 20,0 9 5 NE 1018,0 30 0
14.08.2017 07:00:00 21,6 19,9 9 5 NNE 1018,0 20 0
14.08.2017 06:00:00 - - - - - - - -
14.08.2017 05:00:00 - - - - - - - -

tt = Temperatura
td = dewpoint
ff = velocità del vento
dd = direzione del vento
ppp = reduced air pressure
vv = visibility
sd = ore di luce

Stazioni seguenti

WeatherPro
AMSI
MeteoEarth